This is the latest recevied weather packets stored in our database for station/object G4AAX-10. If no packets are shown the sender has not sent any weather packets the latest 1 day(s).
| Time | Temp. | Humidity | Pressure | Rain* | Wind** | Luminosity | Snow |
|---|---|---|---|---|---|---|---|
| 1778103872 | 17.78° C | 41% | 1018.4 hPa | - | - | - | - |
| 1778098471 | 17.78° C | 40% | 1018.4 hPa | - | - | - | - |
| 1778094871 | 17.78° C | 40% | 1018.5 hPa | - | - | - | - |
| 1778085870 | 17.78° C | 39% | 1018.3 hPa | - | - | - | - |
| 1778084070 | 17.78° C | 38% | 1018.4 hPa | - | - | - | - |
| 1778076869 | 19.44° C | 38% | 1019 hPa | - | - | - | - |
| 1778067868 | 18.89° C | 45% | 1019.2 hPa | - | - | - | - |
| 1778066068 | 17.78° C | 45% | 1019.3 hPa | - | - | - | - |
| 1778064268 | 17.22° C | 46% | 1019.4 hPa | - | - | - | - |
| 1778057067 | 15.56° C | 45% | 1019.4 hPa | - | - | - | - |
| 1778055267 | 15° C | 45% | 1019.4 hPa | - | - | - | - |
| 1778053467 | 15° C | 45% | 1019.4 hPa | - | - | - | - |
| 1778048066 | 15.56° C | 44% | 1019.1 hPa | - | - | - | - |
| 1778046266 | 15.56° C | 44% | 1019 hPa | - | - | - | - |
| 1778044466 | 15.56° C | 43% | 1018.9 hPa | - | - | - | - |
| 1778042666 | 16.11° C | 44% | 1019 hPa | - | - | - | - |
| 1778040865 | 16.11° C | 44% | 1018.9 hPa | - | - | - | - |
| 1778039065 | 16.11° C | 44% | 1019 hPa | - | - | - | - |
| 1778037265 | 16.11° C | 44% | 1019.1 hPa | - | - | - | - |
| 1778035465 | 16.67° C | 44% | 1019.1 hPa | - | - | - | - |
| 1778033665 | 16.67° C | 44% | 1019.2 hPa | - | - | - | - |
| 1778031865 | 16.67° C | 44% | 1019.3 hPa | - | - | - | - |
| 1778030064 | 16.67° C | 44% | 1019.3 hPa | - | - | - | - |
| 1778028264 | 17.22° C | 45% | 1019.4 hPa | - | - | - | - |
| 1778026464 | 17.22° C | 45% | 1019.4 hPa | - | - | - | - |
* Rain since midnight (hover to see other rain measurements)
** Current wind speed in m/s (hover to see current wind gust speed)